パンスターズ彗星

C/2017 K1 ( PanSTARRS )

English version
Home page
Updated on May 20, 2019

---------------------------------------------------------------------

・ プロフィール

発見日 2017年5月21日
発見光度 20.3等
発見者 Pan-STARRS 1 telescope (Haleakala)

・ 写真集

・ 軌道要素

Epoch 2018 Mar. 23.0 TT = JDT 2458200.5
T 2018 Mar. 14.23519 TT                                 MPCW
q   7.2856099            (2000.0)            P               Q
z  -0.0003380      Peri.    4.16479     -0.74396459     -0.59020673
 +/-0.0000013      Node   225.64227     -0.62504293     +0.44883642
e   1.0024624      Incl.  154.00938     -0.23630071     +0.67097085
From 110 observations 2017 May 21-2019 May 6, mean residual 0".5.

・ 光度変化

        m1 = 6.5 + 5 logΔ + 10.0 log r

---------------------------------------------------------------------

軌道要素はM.P.E.C. 2019-J142に掲載されたものです。
光度グラフはComet for Windowsで作成したものです。

---------------------------------------------------------------------

Copyright(C) Seiichi Yoshida (comet@aerith.net). All rights reserved.